Regional Weather Roundup
Issued by NWS

Home | Current Version | Previous Version | Text Only | Print | Product List | Glossary Off
Versions: 1 2 3 4 5 6 7 8 9 10 11 12 13 14 15 16 17 18 19 20 21 22 23 24 25 26 27 28 29 30 31 32 33 34 35 36 37 38 39 40 41 42 43 44 45 46 47 48 49 50

000
ASUS45 KABQ 301210
RWRNM
WEATHER ROUNDUP FOR NEW MEXICO
NATIONAL WEATHER SERVICE ALBUQUERQUE NM
600 AM MDT SAT AUG 30 2014

NOTE: "FAIR" MEANS FEW OR NO CLOUDS BELOW 12,000 FEET AGL WITH NO
       SIGNIFICANT WEATHER OR OBSTRUCTIONS TO VISION.

      THIS PRODUCT IS RELEASED AS TWO VERSIONS.  ONE VERSION NEAR
      THE TOP OF THE HOUR CONTAINING PRELIMINARY DATA FROM ALBUQUERQUE
      AND OTHER STATIONS.  A FINAL VERSION WITH ADDITIONAL DATA IS
      ISSUED ABOUT 10 MINUTES AFTER THE HOUR.

NMZ501-503-504-510>518-301300-
NORTHWEST PLATEAU/NORTHCENTRAL MOUNTAINS

CITY           SKY/WX    TMP DP  RH WIND       PRES   REMARKS
FARMINGTON     CLEAR     54  43  66 E8        30.15R
6HR MIN TEMP:  53; 6HR MAX TEMP:  65;

LOS ALAMOS     CLEAR     58  35  41 W8        30.29S
SANTA FE       CLEAR     54  42  64 CALM      30.22R
6HR MIN TEMP:  54; 6HR MAX TEMP:  63;

ANGEL FIRE     FAIR      36  33  89 CALM      30.39S

$$
NMZ402-403-502-505>509-301300-
WESTCENTRAL MOUNTAINS/SOUTHWEST MOUNTAINS

CITY           SKY/WX    TMP DP  RH WIND       PRES   REMARKS
GALLUP         PTCLDY    45  27  49 CALM      30.23S
6HR MIN TEMP:  44; 6HR MAX TEMP:  56;

SILVER CITY    MOCLDY    64  43  45 N9        30.17R

$$
NMZ407-409-411-412-301300-
SOUTHERN DESERTS

CITY           SKY/WX    TMP DP  RH WIND       PRES   REMARKS
LORDSBURG      PTSUNNY   63  45  51 SE7       30.07R
DEMING         MOCLDY    67  44  43 CALM      30.07R
6HR MIN TEMP:  67; 6HR MAX TEMP:  78;

LAS CRUCES     CLOUDY    74  45  35 S5        30.10R
HOLLOMAN AFB   MOCLDY    65  49  55 CALM      30.08R
ALAMOGORDO     PTCLDY    63  48  59 E3        30.10R
T OR C         CLOUDY    67  49  52 NW5       30.11R
6HR MIN TEMP:  66; 6HR MAX TEMP:  72;


$$
NMZ519>523-301300-
CENTRAL VALLEYS/CENTRAL HIGHLANDS

CITY           SKY/WX    TMP DP  RH WIND       PRES   REMARKS
ALBUQUERQUE    CLEAR     63  43  48 N7        30.16R
6HR MIN TEMP:  62; 6HR MAX TEMP:  72;

DOUBLE EAGLE   CLEAR     54  39  58 NW6       30.20R
MORIARTY ARPT  FAIR      46  43  88 CALM      30.24R
6HR MIN TEMP:  45; 6HR MAX TEMP:  53;

CLINES CORNERS CLEAR     54  41  61 E7        30.27S
6HR MIN TEMP:  54; 6HR MAX TEMP:  61;

BELEN          FAIR      56  43  62 CALM      30.15R
6HR MIN TEMP:  54; 6HR MAX TEMP:  64;

SOCORRO        FAIR      60  51  69 NW5       30.13R
6HR MIN TEMP:  60; 6HR MAX TEMP:  67;


$$
NMZ524>526-539-540-301300-
SOUTHCENTRAL MOUNTAINS

CITY           SKY/WX    TMP DP  RH WIND       PRES   REMARKS
RUIDOSO        CLEAR     59  45  58 CALM      30.31R

$$
NMZ527>531-301300-
NORTHEAST HIGHLANDS/NORTHEAST PLAINS

CITY           SKY/WX    TMP DP  RH WIND       PRES   REMARKS
LAS VEGAS      CLEAR     48  40  73 NE5       30.29R
6HR MIN TEMP:  48; 6HR MAX TEMP:  57;

RATON          PTCLDY    52  44  74 N5        30.23S
6HR MIN TEMP:  52; 6HR MAX TEMP:  63;

CLAYTON        MOCLDY    61  49  64 NW7       30.15S
6HR MIN TEMP:  60; 6HR MAX TEMP:  69;


$$
NMZ532>537-301300-
EASTCENTRAL PLAINS

CITY           SKY/WX    TMP DP  RH WIND       PRES   REMARKS
TUCUMCARI      CLEAR     62  49  62 CALM      30.10R
6HR MIN TEMP:  61; 6HR MAX TEMP:  72;

CANNON AFB     PTCLDY    66  65  98 NW5       30.13R
6HR MIN TEMP:  63; 6HR MAX TEMP:  67;

CLOVIS AIRPORT   N/A     63  59  88 W10       30.15R

$$
NMZ028-029-538-301300-
SOUTHEAST PLAINS

CITY           SKY/WX    TMP DP  RH WIND       PRES   REMARKS
ROSWELL        CLEAR     68  56  65 CALM      30.07S
6HR MIN TEMP:  67; 6HR MAX TEMP:  74;

CARLSBAD       CLEAR     70  61  73 CALM      30.03R
6HR MIN TEMP:  70; 6HR MAX TEMP:  78;

HOBBS          CLEAR     66  63  88 VRB3      30.08


$$



USA.gov is the U.S. government's official web portal to all federal, state and local government web resources and services.